Find Starlink 31724

NORAD ID: 59554 Int'l Des: 2024-074 Owner: SPXS Country: US Constellation: starlink operational
LEOCIRCULAR

Live-Position

3D-Globus wird geladen...

Über Starlink 31724

Beschreibung wird geladen...

Nächste Überflüge

Passes for default location (London). Set your location on the main map for personalized predictions.

Höhenverlauf

Loading altitude history...

Zweizeiliger Elementsatz

1 59554U 24074W 26124.00241351 .00001498 00000-0 63922-4 0 9994
2 59554 43.0031 355.1125 0001065 271.4051 88.6678 15.27595413114882
Epoch: 4. Mai 2026 • Age: 11 hours

Aktueller Status

Höhe 486.4 km
Geschwindigkeit 7.63 km/s
Subsatellitenpunkt 41.10°N, 28.09°E
Startdatum 18. Apr. 2024
Alter 2 years
Typ internet

Technische Details

Klassifizierung Payload
Masse 730.00 kg
Trockenmasse 700.00 kg
Gesamtmasse 730.00 kg
Länge 0.30 m
Durchmesser 4.10 m
Spannweite 29.00 m
Form Box + pan
Hersteller SPXS
Bus-Typ Starlink V2M
Phasenstatus In Orbit
Besitzer/Staat SPXS/US

Most Searched